Time,TemperatureF,DewpointF,PressureIn,WindDirection,WindDirectionDegrees,WindSpeedMPH,WindSpeedGustMPH,Humidity,HourlyPrecipIn,Conditions,Clouds,dailyrainin,SolarRadiationWatts/m^2,SoftwareType,DateUTC
2013-07-07 00:11:00,70.0,68.0,-100.00,SW,225,0.0,3.0,95,0.00,,,0.00,1.000000,,2013-07-07 05:11:00,
2013-07-07 00:21:00,70.0,68.0,-100.00,SW,225,0.0,3.0,95,0.00,,,0.00,1.000000,,2013-07-07 05:21:00,
2013-07-07 00:31:00,70.0,68.0,-100.00,SW,225,0.0,3.0,95,0.00,,,0.00,1.000000,,2013-07-07 05:31:00,
2013-07-07 00:41:00,70.0,68.0,-100.00,SW,225,0.0,3.0,95,0.00,,,0.00,1.000000,,2013-07-07 05:41:00,
2013-07-07 00:51:00,70.0,68.0,-100.00,SW,225,0.0,3.0,95,0.00,,,0.00,1.000000,,2013-07-07 05:51:00,
2013-07-07 01:11:00,68.0,67.0,-100.00,NW,310,1.0,3.0,96,0.00,,,0.00,1.000000,,2013-07-07 06:11:00,
2013-07-07 01:21:00,68.0,67.0,-100.00,NW,310,1.0,3.0,96,0.00,,,0.00,1.000000,,2013-07-07 06:21:00,
2013-07-07 01:32:00,68.0,67.0,-100.00,NW,310,1.0,3.0,96,0.00,,,0.00,1.000000,,2013-07-07 06:32:00,
2013-07-07 01:43:00,68.0,67.0,-100.00,NW,310,1.0,3.0,96,0.00,,,0.00,1.000000,,2013-07-07 06:43:00,
2013-07-07 01:52:00,68.0,67.0,-100.00,NW,310,1.0,3.0,96,0.00,,,0.00,1.000000,,2013-07-07 06:52:00,
2013-07-07 01:53:00,68.0,66.0,-100.00,WNW,282,2.0,5.0,92,0.00,,,0.00,1.000000,,2013-07-07 06:53:00,
2013-07-07 02:11:00,68.0,66.0,-100.00,WNW,282,2.0,5.0,92,0.00,,,0.00,1.000000,,2013-07-07 07:11:00,
2013-07-07 02:22:00,68.0,66.0,-100.00,WNW,282,2.0,5.0,92,0.00,,,0.00,1.000000,,2013-07-07 07:22:00,
2013-07-07 02:33:00,68.0,66.0,-100.00,WNW,282,2.0,5.0,92,0.00,,,0.00,1.000000,,2013-07-07 07:33:00,
2013-07-07 02:44:00,68.0,66.0,-100.00,WNW,282,2.0,5.0,92,0.00,,,0.00,1.000000,,2013-07-07 07:44:00,
2013-07-07 02:53:00,66.0,65.0,-100.00,West,273,0.0,4.0,95,0.00,,,0.00,1.000000,,2013-07-07 07:53:00,
2013-07-07 03:12:00,66.0,65.0,-100.00,West,273,0.0,4.0,95,0.00,,,0.00,1.000000,,2013-07-07 08:12:00,
2013-07-07 03:22:00,66.0,65.0,-100.00,West,273,0.0,4.0,95,0.00,,,0.00,1.000000,,2013-07-07 08:22:00,
2013-07-07 03:34:00,66.0,65.0,-100.00,West,273,0.0,4.0,95,0.00,,,0.00,1.000000,,2013-07-07 08:34:00,
2013-07-07 03:44:00,66.0,65.0,-100.00,West,273,0.0,4.0,95,0.00,,,0.00,1.000000,,2013-07-07 08:44:00,
2013-07-07 03:53:00,65.0,64.0,-100.00,WSW,250,0.0,2.0,96,0.00,,,0.00,1.000000,,2013-07-07 08:53:00,
2013-07-07 04:12:00,65.0,64.0,-100.00,WSW,250,0.0,2.0,96,0.00,,,0.00,1.000000,,2013-07-07 09:12:00,
2013-07-07 04:22:00,65.0,64.0,-100.00,WSW,250,0.0,2.0,96,0.00,,,0.00,1.000000,,2013-07-07 09:22:00,
2013-07-07 04:34:00,65.0,64.0,-100.00,WSW,250,0.0,2.0,96,0.00,,,0.00,1.000000,,2013-07-07 09:34:00,
2013-07-07 04:43:00,65.0,64.0,-100.00,WSW,250,0.0,2.0,96,0.00,,,0.00,1.000000,,2013-07-07 09:43:00,
2013-07-07 05:12:00,64.0,63.0,-100.00,East,95,0.0,2.0,98,0.00,,,0.00,1.000000,,2013-07-07 10:12:00,
2013-07-07 05:22:00,64.0,63.0,-100.00,East,95,0.0,2.0,98,0.00,,,0.00,1.000000,,2013-07-07 10:22:00,
2013-07-07 05:32:00,64.0,63.0,-100.00,East,95,0.0,2.0,98,0.00,,,0.00,1.000000,,2013-07-07 10:32:00,
2013-07-07 05:43:00,64.0,63.0,-100.00,East,95,0.0,2.0,98,0.00,,,0.00,1.000000,,2013-07-07 10:43:00,
2013-07-07 05:52:00,64.0,63.0,-100.00,East,95,0.0,2.0,98,0.00,,,0.00,1.000000,,2013-07-07 10:52:00,
2013-07-07 05:53:00,63.0,62.0,-100.00,SE,135,0.0,3.0,98,0.00,,,0.00,2.000000,,2013-07-07 10:53:00,
2013-07-07 06:11:00,63.0,62.0,-100.00,SE,135,0.0,3.0,98,0.00,,,0.00,2.000000,,2013-07-07 11:11:00,
2013-07-07 06:23:00,63.0,62.0,-100.00,SE,135,0.0,3.0,98,0.00,,,0.00,2.000000,,2013-07-07 11:23:00,
2013-07-07 06:34:00,63.0,62.0,-100.00,SE,135,0.0,3.0,98,0.00,,,0.00,2.000000,,2013-07-07 11:34:00,
2013-07-07 06:43:00,63.0,62.0,-100.00,SE,135,0.0,3.0,98,0.00,,,0.00,2.000000,,2013-07-07 11:43:00,
2013-07-07 07:12:00,65.0,64.0,-100.00,WSW,250,0.0,2.0,98,0.00,,,0.00,42.000000,,2013-07-07 12:12:00,
2013-07-07 07:22:00,65.0,64.0,-100.00,WSW,250,0.0,2.0,98,0.00,,,0.00,42.000000,,2013-07-07 12:22:00,
2013-07-07 07:34:00,65.0,64.0,-100.00,WSW,250,0.0,2.0,98,0.00,,,0.00,42.000000,,2013-07-07 12:34:00,
2013-07-07 07:43:00,65.0,64.0,-100.00,WSW,250,0.0,2.0,98,0.00,,,0.00,42.000000,,2013-07-07 12:43:00,
2013-07-07 07:52:00,65.0,64.0,-100.00,WSW,250,0.0,2.0,98,0.00,,,0.00,42.000000,,2013-07-07 12:52:00,
2013-07-07 08:22:00,72.0,68.0,-100.00,WNW,288,2.0,3.0,87,0.00,,,0.00,217.000000,,2013-07-07 13:22:00,
2013-07-07 08:34:00,72.0,68.0,-100.00,WNW,288,2.0,3.0,87,0.00,,,0.00,217.000000,,2013-07-07 13:34:00,
2013-07-07 08:43:00,72.0,68.0,-100.00,WNW,288,2.0,3.0,87,0.00,,,0.00,217.000000,,2013-07-07 13:43:00,
2013-07-07 08:52:00,72.0,68.0,-100.00,WNW,288,2.0,3.0,87,0.00,,,0.00,217.000000,,2013-07-07 13:52:00,
2013-07-07 08:53:00,77.0,71.0,-100.00,ENE,67,2.0,6.0,83,0.00,,,0.00,408.000000,,2013-07-07 13:53:00,
2013-07-07 09:34:00,77.0,71.0,-100.00,ENE,67,2.0,6.0,83,0.00,,,0.00,408.000000,,2013-07-07 14:34:00,
2013-07-07 09:43:00,77.0,71.0,-100.00,ENE,67,2.0,6.0,83,0.00,,,0.00,408.000000,,2013-07-07 14:43:00,
2013-07-07 10:11:00,80.0,71.0,-100.00,ENE,68,5.0,8.0,75,0.00,,,0.00,605.000000,,2013-07-07 15:11:00,
2013-07-07 10:22:00,80.0,71.0,-100.00,ENE,68,5.0,8.0,75,0.00,,,0.00,605.000000,,2013-07-07 15:22:00,
2013-07-07 10:34:00,80.0,71.0,-100.00,ENE,68,5.0,8.0,75,0.00,,,0.00,605.000000,,2013-07-07 15:34:00,
2013-07-07 10:43:00,80.0,71.0,-100.00,ENE,68,5.0,8.0,75,0.00,,,0.00,605.000000,,2013-07-07 15:43:00,
2013-07-07 10:52:00,80.0,71.0,-100.00,ENE,68,5.0,8.0,75,0.00,,,0.00,605.000000,,2013-07-07 15:52:00,
2013-07-07 10:53:00,83.0,71.0,-100.00,East,98,5.0,9.0,68,0.00,,,0.00,778.000000,,2013-07-07 15:53:00,
2013-07-07 11:11:00,83.0,71.0,-100.00,East,98,5.0,9.0,68,0.00,,,0.00,778.000000,,2013-07-07 16:11:00,
2013-07-07 11:23:00,83.0,71.0,-100.00,East,98,5.0,9.0,68,0.00,,,0.00,778.000000,,2013-07-07 16:23:00,
2013-07-07 11:34:00,83.0,71.0,-100.00,East,98,5.0,9.0,68,0.00,,,0.00,778.000000,,2013-07-07 16:34:00,
2013-07-07 11:43:00,83.0,71.0,-100.00,East,98,5.0,9.0,68,0.00,,,0.00,778.000000,,2013-07-07 16:43:00,
2013-07-07 11:53:00,87.0,71.0,-100.00,East,79,3.0,9.0,60,0.00,,,-99.99,966.000000,,2013-07-07 16:53:00,
2013-07-07 12:12:00,87.0,71.0,-100.00,East,79,3.0,9.0,60,0.00,,,-99.99,966.000000,,2013-07-07 17:12:00,
2013-07-07 12:22:00,87.0,71.0,-100.00,East,79,3.0,9.0,60,0.00,,,-99.99,966.000000,,2013-07-07 17:22:00,
2013-07-07 12:34:00,87.0,71.0,-100.00,East,79,3.0,9.0,60,0.00,,,-99.99,966.000000,,2013-07-07 17:34:00,
2013-07-07 12:43:00,87.0,71.0,-100.00,East,79,3.0,9.0,60,0.00,,,-99.99,966.000000,,2013-07-07 17:43:00,
2013-07-07 12:53:00,88.0,69.0,-100.00,NNE,19,5.0,9.0,54,0.00,,,0.00,883.000000,,2013-07-07 17:53:00,
2013-07-07 13:11:00,88.0,69.0,-100.00,NNE,19,5.0,9.0,54,0.00,,,0.00,883.000000,,2013-07-07 18:11:00,
2013-07-07 13:22:00,88.0,69.0,-100.00,NNE,19,5.0,9.0,54,0.00,,,0.00,883.000000,,2013-07-07 18:22:00,
2013-07-07 13:33:00,88.0,69.0,-100.00,NNE,19,5.0,9.0,54,0.00,,,0.00,883.000000,,2013-07-07 18:33:00,
2013-07-07 13:43:00,88.0,69.0,-100.00,NNE,19,5.0,9.0,54,0.00,,,0.00,883.000000,,2013-07-07 18:43:00,
2013-07-07 13:53:00,88.0,70.0,-100.00,NNE,18,6.0,11.0,56,0.00,,,0.00,942.000000,,2013-07-07 18:53:00,
2013-07-07 14:22:00,88.0,70.0,-100.00,NNE,18,6.0,11.0,56,0.00,,,0.00,942.000000,,2013-07-07 19:22:00,
2013-07-07 14:34:00,88.0,70.0,-100.00,NNE,18,6.0,11.0,56,0.00,,,0.00,942.000000,,2013-07-07 19:34:00,
2013-07-07 14:43:00,88.0,70.0,-100.00,NNE,18,6.0,11.0,56,0.00,,,0.00,942.000000,,2013-07-07 19:43:00,
2013-07-07 14:53:00,89.0,67.0,-100.00,NNE,27,5.0,13.0,48,0.00,,,0.00,956.000000,,2013-07-07 19:53:00,
2013-07-07 15:11:00,89.0,67.0,-100.00,NNE,27,5.0,13.0,48,0.00,,,0.00,956.000000,,2013-07-07 20:11:00,
2013-07-07 15:22:00,89.0,67.0,-100.00,NNE,27,5.0,13.0,48,0.00,,,0.00,956.000000,,2013-07-07 20:22:00,
2013-07-07 15:34:00,89.0,67.0,-100.00,NNE,27,5.0,13.0,48,0.00,,,0.00,956.000000,,2013-07-07 20:34:00,
2013-07-07 15:42:00,89.0,67.0,-100.00,NNE,27,5.0,13.0,48,0.00,,,0.00,956.000000,,2013-07-07 20:42:00,
2013-07-07 15:53:00,90.0,68.0,-100.00,North,10,6.0,11.0,49,0.00,,,0.00,846.000000,,2013-07-07 20:53:00,
2013-07-07 16:11:00,90.0,68.0,-100.00,North,10,6.0,11.0,49,0.00,,,0.00,846.000000,,2013-07-07 21:11:00,
2013-07-07 16:22:00,90.0,68.0,-100.00,North,10,6.0,11.0,49,0.00,,,0.00,846.000000,,2013-07-07 21:22:00,
2013-07-07 16:33:00,90.0,68.0,-100.00,North,10,6.0,11.0,49,0.00,,,0.00,846.000000,,2013-07-07 21:33:00,
2013-07-07 16:43:00,90.0,68.0,-100.00,North,10,6.0,11.0,49,0.00,,,0.00,846.000000,,2013-07-07 21:43:00,
2013-07-07 16:53:00,90.0,68.0,-100.00,NNE,14,6.0,10.0,49,0.00,,,0.00,695.000000,,2013-07-07 21:53:00,
2013-07-07 17:11:00,90.0,68.0,-100.00,NNE,14,6.0,10.0,49,0.00,,,0.00,695.000000,,2013-07-07 22:11:00,
2013-07-07 17:22:00,90.0,68.0,-100.00,NNE,14,6.0,10.0,49,0.00,,,0.00,695.000000,,2013-07-07 22:22:00,
2013-07-07 17:34:00,90.0,68.0,-100.00,NNE,14,6.0,10.0,49,0.00,,,0.00,695.000000,,2013-07-07 22:34:00,
2013-07-07 17:43:00,90.0,68.0,-100.00,NNE,14,6.0,10.0,49,0.00,,,0.00,695.000000,,2013-07-07 22:43:00,
2013-07-07 17:53:00,88.0,70.0,-100.00,NNE,27,5.0,9.0,55,0.00,,,0.00,468.000000,,2013-07-07 22:53:00,
2013-07-07 18:12:00,88.0,70.0,-100.00,NNE,27,5.0,9.0,55,0.00,,,0.00,468.000000,,2013-07-07 23:12:00,
2013-07-07 18:22:00,88.0,70.0,-100.00,NNE,27,5.0,9.0,55,0.00,,,0.00,468.000000,,2013-07-07 23:22:00,
2013-07-07 18:33:00,88.0,70.0,-100.00,NNE,27,5.0,9.0,55,0.00,,,0.00,468.000000,,2013-07-07 23:33:00,
2013-07-07 18:43:00,88.0,70.0,-100.00,NNE,27,5.0,9.0,55,0.00,,,0.00,468.000000,,2013-07-07 23:43:00,
2013-07-07 18:53:00,88.0,70.0,-100.00,NNE,31,4.0,7.0,56,0.00,,,0.00,294.000000,,2013-07-07 23:53:00,
2013-07-07 19:22:00,88.0,70.0,-100.00,NNE,31,4.0,7.0,56,0.00,,,0.00,294.000000,,2013-07-08 00:22:00,
2013-07-07 19:33:00,88.0,70.0,-100.00,NNE,31,4.0,7.0,56,0.00,,,0.00,294.000000,,2013-07-08 00:33:00,
2013-07-07 19:43:00,88.0,70.0,-100.00,NNE,31,4.0,7.0,56,0.00,,,0.00,294.000000,,2013-07-08 00:43:00,
2013-07-07 20:11:00,84.0,73.0,-100.00,NE,40,1.0,5.0,69,0.00,,,0.00,92.000000,,2013-07-08 01:11:00,
2013-07-07 20:22:00,84.0,73.0,-100.00,NE,40,1.0,5.0,69,0.00,,,0.00,92.000000,,2013-07-08 01:22:00,
2013-07-07 20:32:00,84.0,73.0,-100.00,NE,40,1.0,5.0,69,0.00,,,0.00,92.000000,,2013-07-08 01:32:00,
2013-07-07 20:43:00,84.0,73.0,-100.00,NE,40,1.0,5.0,69,0.00,,,0.00,92.000000,,2013-07-08 01:43:00,
2013-07-07 20:52:00,84.0,73.0,-100.00,NE,40,1.0,5.0,69,0.00,,,0.00,92.000000,,2013-07-08 01:52:00,
2013-07-07 21:11:00,78.0,72.0,-100.00,NE,54,0.0,2.0,82,0.00,,,0.00,11.000000,,2013-07-08 02:11:00,
2013-07-07 21:22:00,78.0,72.0,-100.00,NE,54,0.0,2.0,82,0.00,,,0.00,11.000000,,2013-07-08 02:22:00,
2013-07-07 21:33:00,78.0,72.0,-100.00,NE,54,0.0,2.0,82,0.00,,,0.00,11.000000,,2013-07-08 02:33:00,
2013-07-07 21:42:00,78.0,72.0,-100.00,NE,54,0.0,2.0,82,0.00,,,0.00,11.000000,,2013-07-08 02:42:00,
2013-07-07 21:52:00,78.0,72.0,-100.00,NE,54,0.0,2.0,82,0.00,,,0.00,11.000000,,2013-07-08 02:52:00,
2013-07-07 22:12:00,78.0,70.0,-100.00,NE,45,2.0,4.0,77,0.00,,,0.00,1.000000,,2013-07-08 03:12:00,
2013-07-07 22:23:00,78.0,70.0,-100.00,NE,45,2.0,4.0,77,0.00,,,0.00,1.000000,,2013-07-08 03:23:00,
2013-07-07 22:34:00,78.0,70.0,-100.00,NE,45,2.0,4.0,77,0.00,,,0.00,1.000000,,2013-07-08 03:34:00,
2013-07-07 22:42:00,78.0,70.0,-100.00,NE,45,2.0,4.0,77,0.00,,,0.00,1.000000,,2013-07-08 03:42:00,
2013-07-07 22:52:00,78.0,70.0,-100.00,NE,45,2.0,4.0,77,0.00,,,0.00,1.000000,,2013-07-08 03:52:00,
2013-07-07 22:53:00,74.0,71.0,-100.00,SSW,199,0.0,2.0,91,0.00,,,0.00,1.000000,,2013-07-08 03:53:00,
2013-07-07 23:12:00,74.0,71.0,-100.00,SSW,199,0.0,2.0,91,0.00,,,0.00,1.000000,,2013-07-08 04:12:00,
2013-07-07 23:22:00,74.0,71.0,-100.00,SSW,199,0.0,2.0,91,0.00,,,0.00,1.000000,,2013-07-08 04:22:00,
2013-07-07 23:33:00,74.0,71.0,-100.00,SSW,199,0.0,2.0,91,0.00,,,0.00,1.000000,,2013-07-08 04:33:00,
2013-07-07 23:42:00,74.0,71.0,-100.00,SSW,199,0.0,2.0,91,0.00,,,0.00,1.000000,,2013-07-08 04:42:00,
2013-07-07 23:53:00,73.0,71.0,-100.00,WNW,285,0.0,0.0,93,0.00,,,0.00,1.000000,,2013-07-08 04:53:00,